Tracking 27086 objects as of 22-Mar-2023
HD Live streaming from Space Station
objects crossing your sky now

COSMOS 2251 DEB

Track COSMOS 2251 DEB now!
10-day predictions


NORAD ID: 33948
Int'l Code: 1993-036FD
Perigee: 768.5 km
Apogee: 804.0 km
Inclination: 74.0 °
Period: 100.4 minutes
Semi major axis: 7157 km
RCS: 0.032 m2 (small)
Launch date: June 16, 1993
Source: Commonwealth of Independent States (former USSR) (CIS)
Launch site: PLESETSK MISSILE AND SPACE COMPLEX (PKMTR)

Note: This is SATELLITE DEBRIS
Your satellite tracking list
Your tracking list is empty




NASA's NSSDC Master Catalog

Two Line Element Set (TLE):
1 33948U 93036FD  23080.11301531  .00000661  00000-0  24646-3 0  9994
2 33948  74.0375 332.6851 0024809 292.5946  67.2581 14.33775265737169
Source of the keplerian elements: AFSPC